Regional Weather Roundup
Issued by NWS Albany, NY

Home | Current Version | Previous Version | Text Only | Print | Product List | Glossary On
Versions: 1 2 3 4 5 6 7 8 9 10 11 12 13 14 15 16 17 18 19 20 21 22 23 24 25 26 27 28 29 30 31 32 33 34 35 36 37 38 39 40 41 42 43 44 45 46 47 48 49 50
000
ASUS41 KALY 191510
RWRALY

NEW YORK STATE HOURLY WEATHER ROUNDUP
NATIONAL WEATHER SERVICE ALBANY NY
1100 AM EDT SUN APR 19 2015

NOTE: "FAIR" INDICATES FEW OR NO CLOUDS BELOW 12,000 FEET WITH NO
SIGNIFICANT WEATHER AND/OR NO OBSTRUCTIONS TO VISIBILITY.

NYZ032-033-038>043-046>054-057>066-NYZ062>081-191600-
EAST


CITY           SKY/WX    TMP DP  RH WIND       PRES   REMARKS
ALBANY         MOSUNNY   51  30  44 VRB5      30.30S
GLENS FALLS    MOSUNNY   48  30  49 NE7       30.31S
POUGHKEEPSIE   SUNNY     54  31  41 VRB5      30.26F
NEWBURGH       SUNNY     52  34  50 VRB5      30.28F
MONTGOMERY     MOSUNNY   54  31  41 NE8       30.26F
WHITE PLAINS   MOSUNNY   54  33  45 VRB6      30.25S
ISLIP          PTSUNNY   57  30  35 E10       30.26R
NEW YORK CITY  PTSUNNY   56  32  40 NE10      30.27R
CENTRAL PARK   MOSUNNY   59  29  31 E10       30.29R
$$

NYZ005>009-017-018-044>046-055-056-191600-
CENTRAL


CITY           SKY/WX    TMP DP  RH WIND       PRES   REMARKS
FULTON         SUNNY     50  30  46 VRB6      30.26S
SYRACUSE       PTSUNNY   51  31  46 SE6       30.26R
ROME           SUNNY     50  31  48 S9G18     30.28S
ELMIRA         MOSUNNY   54  28  36 E6        30.21F
BINGHAMTON     MOSUNNY   51  27  39 SE8       30.21S
MONTICELLO     MOSUNNY   52  28  40 E5        30.25S
$$

NYZ026>034-041>043-191600-
NORTH


CITY           SKY/WX    TMP DP  RH WIND       PRES   REMARKS
WATERTOWN      SUNNY     48  29  47 E8G20     30.28S
FORT DRUM      NOT AVBL
MASSENA        SUNNY     45  27  49 NE10G17   30.34S
SARANAC LAKE   SUNNY     41  25  53 NE8       30.25R
PLATTSBURGH    SUNNY     44  28  53 NE10      30.34R
$$

NYZ001>004-010>016-019>021-191600-
WEST


CITY           SKY/WX    TMP DP  RH WIND       PRES   REMARKS
NIAGARA FALLS  PTSUNNY   50  32  50 E17       30.16F
BUFFALO        PTSUNNY   51  32  48 NE16      30.16F
DUNKIRK        MOSUNNY   59  29  31 E8        30.11F
JAMESTOWN      MOSUNNY   55  27  33 SE16      30.10F
WELLSVILLE     PTSUNNY   53  25  33 SE10      30.17F
ROCHESTER      PTSUNNY   50  31  48 E9        30.23F
PENN YAN       MOSUNNY   52  30  43 VRB5      30.23S
$$

             KEY
       WCI = WIND CHILL INDEX
       VSB = VISIBILITY
       HX  = HEAT INDEX
$$



USA.gov is the U.S. government's official web portal to all federal, state and local government web resources and services.